C/2009 B2 (LINEAR)
Epoch 2009 Feb. 18.0 TT = JDT 2454880.5  
T 2009 Mar. 7.39208 TT                                  Nakano
q   2.3276081            (2000.0)            P               Q
z  +0.0239566      Peri.  192.49528     -0.98831642     -0.08476365
 +/-0.0000557      Node    18.81451     -0.08228268     +0.99630287
e   0.9442385      Incl.  156.87274     -0.12829739     +0.01398960
a  41.74 AU         P     269.7 years
From 172 observations 2009 Jan. 29-Apr. 22, mean residual 0".71.
Residuals in seconds of arc 
2009/                     090301 372  0.1+  0.5+    090324 J97 (3.8+  0.7+) 
090129 704  0.6-  1.8+    090301 372  0.4-  0.4-    090324 J97 (3.3+  0.3-) 
090129 704 (0.2+  2.4+)   090301 349  0.9+  0.4+    090325 704  0.7+  1.0+  
090129 704 (0.5-  2.1+)   090301 349  0.6+  0.4+    090325 704  0.5+  0.6+  
090129 704  0.4+  0.7+    090301 349  0.4+  0.1+    090325 704  0.7-  1.8-  
090130 493  0.0   0.6-    090302 423  0.0   0.9-    090325 704 (0.7+  2.2+) 
090130 493  0.1-  0.7-    090302 423  0.5-  0.4-    090325 473  0.2+  0.6+  
090130 493  0.2-  0.7-    090303 474  0.2+  0.6-    090325 473  0.0   0.5+  
090130 H06  0.1-  0.4-    090303 474  0.2+  0.5-    090326 473  0.2-  0.6+  
090130 H06  0.3-  1.4-    090303 474  0.5+  0.1-    090326 473  0.2-  0.5+  
090130 H06  0.7+  0.5-    090307 473  0.3-  0.5+    090328 379  0.0   1.3-  
090130 E16  0.3+  0.0     090308 473  0.0   0.5+    090328 379  1.3-  0.6+  
090130 E16  0.5-  0.4+    090314 349  1.0+  0.4+    090328 379  0.1-  0.1+  
090131 204  0.3-  0.4-    090314 349  0.7+  0.5+    090328 585  0.3+  1.6-  
090131 204  0.4-  0.4-    090314 349  0.7+  0.4+    090328 585 (2.1-  0.4-) 
090131 204  0.2-  0.1-    090314 900 (0.0   2.5+)   090328 585  1.0-  1.4+  
090131 H36  0.3-  0.8-    090314 900 (0.3+  3.2+)   090328 585  0.4+  1.4-  
090131 H36  0.6-  0.7+    090316 J40  0.3+  1.3+    090330 H45  0.2-  0.1-  
090131 H06  0.4+  1.3-    090316 J40  0.1-  0.1-    090330 H45  0.1-  0.2+  
090131 H06  0.3+  0.8-    090316 J40  0.8+  0.9-    090330 H45  0.1-  0.2+  
090131 H06  0.4+  0.1-    090316 703 (0.3+  4.4+)   090330 H45  0.7-  0.8+  
090131 673  1.1+  0.6-    090316 703 (0.2+  2.3+)   090330 H45  0.0   0.1+  
090131 673  0.8+  0.9-    090316 703  0.5+  0.5+    090330 H45  0.2+  0.1-  
090131 691  0.2-  0.3+    090317 B74 (3.4-  2.3+)   090331 703 (0.8-  2.4+) 
090131 448  0.2-  0.3+    090317 B74 (3.3-  1.4+)   090331 703 (0.6-  2.3+) 
090131 448  0.8-  0.3-    090317 B74 (3.7-  1.3+)   090401 H45  1.0-  1.1+  
090131 691  0.3-  0.6+    090317 900  1.1-  0.4+    090401 H45  0.3-  0.4+  
090131 673  0.0   1.3-    090317 900  0.6-  0.7+    090401 H45  0.1+  0.2-  
090131 448  0.5-  0.8-    090318 204  0.4+  0.3-    090401 H45  0.3+  0.4-  
090131 691  0.4-  1.0+    090318 204  0.2+  0.5-    090401 H45  1.1+  1.5-  
090131 673  0.2-  1.9-    090318 204  0.1+  0.3+    090401 H45  0.8+  0.2-  
090131 F84  0.6-  0.0     090318 H45  0.4+  0.1+    090402 673  0.7+  0.7-  
090131 F84  0.2-  0.3+    090318 H45  0.5+  0.7-    090402 673  0.9+  1.4-  
090131 F84  0.1+  0.1-    090318 H45  0.0   0.6-    090402 673  0.7+  1.8-  
090201 349  0.7+  0.4+    090318 H45  0.1-  0.3-    090402 673  0.7+  1.5-  
090201 349  0.1+  0.2-    090318 H45  0.6-  0.7-    090402 400  1.3-  1.0+  
090203 E85 (1.6-  7.7-)   090318 H45  0.1+  0.4-    090402 400  1.4-  1.2+  
090205 H45  0.1-  0.0     090318 H45  0.2-  0.5-    090402 400  0.7-  0.1-  
090205 H45  0.6-  0.1+    090318 213  0.3+  0.3-    090402 349  0.8-  0.6+  
090205 H45  0.4+  0.1+    090318 213  0.2+  0.3-    090402 349  0.1-  1.0+  
090205 H45  0.5+  0.4+    090318 213  0.1+  0.0     090402 349  0.0   1.3+  
090205 H45  0.8-  1.5+    090319 130  0.9-  0.6+    090403 213  0.1+  0.1+  
090205 H45  0.7+  1.7+    090319 130  0.8+  1.7+    090403 213  0.3+  0.1+  
090206 900  0.2+  0.0     090319 130  0.2-  0.4+    090403 213  0.2+  0.0   
090206 900  0.2-  0.5-    090319 130  0.2-  0.5-    090403 J47  1.0-  0.9-  
090211 349  0.2-  0.6-    090319 B74 (2.9-  1.8+)   090403 J47  1.2-  1.6+  
090211 349  0.4+  0.3-    090319 B74 (3.2-  1.9+)   090403 J47  0.1-  0.3+  
090212 204  0.1-  0.6+    090319 B74 (3.3-  1.0+)   090415 H45  0.0   0.7-  
090212 204  0.1+  1.2-    090319 H10  1.6+  0.8-    090415 H45  0.3-  0.7-  
090221 900  1.3+  1.1+    090319 H10  1.0-  0.8+    090415 H45  0.1+  0.6-  
090221 900  0.7+  0.4-    090319 H10  0.1+  0.0     090415 H45  0.3-  0.3-  
090221 349  0.3-  0.0     090320 900  0.1-  0.7+    090415 H45  0.3+  0.0   
090221 349  0.3-  0.2+    090320 900  0.7+  1.0+    090415 H45  0.5-  0.6-  
090223 E85  0.9-  1.0-    090320 A77  0.2+  1.1+    090415 H45  0.4-  0.1-  
090223 E85  1.0+  0.4-    090320 A77  0.2+  0.3+    090420 703  0.4+  1.1+  
090223 E85  0.1+  1.1-    090320 A77  0.2+  0.3+    090420 703 (0.9-  2.1+) 
090225 704  0.0   1.4+    090322 157  0.2+  0.2-    090420 703 (0.1+  4.2+) 
090225 704  0.2+  0.8+    090322 157  0.1-  1.4+    090420 703  0.1+  0.5+  
090225 704  0.1+  1.9+    090323 J53  1.7-  0.2+    090420 J47  0.3-  1.6-  
090225 704  0.4+  1.1+    090323 J53  1.5-  0.4-    090420 J47  0.4+  1.9-  
090225 704  0.4+  1.4+    090324 400  0.8+  0.9-    090420 J47 (1.9+  3.0-) 
090225 E85  0.9-  0.0     090324 400  0.3+  0.5-    090422 J47  0.3+  0.3-  
090225 E85 (2.8+  0.0 )   090324 400  0.8+  0.0     090422 J47  0.5+  0.0   
090225 E85  0.2-  0.9+    090324 900  0.6+  0.1-    090422 J47  0.7+  1.1+  
090301 215  1.3-  0.6-    090324 900  0.1-  0.9+                            
090301 215  1.2-  1.0-    090324 J97  0.4-  1.7-                            

NAKANO
         **** Don't distribute anyone except personal use only ****
                (C) Copyright 2009 OAA/ComputingSection
write mail from CFAD0::NAKANO on 2009-05-12 03:07:22(JST).
 
    C/2009 B2 (LINEAR)
Epoch 2009 Feb. 18.0 TT = JDT 2454880.5  
T 2009 Mar. 7.39709 TT                                  Nakano
q   2.3276374            (2000.0)            P               Q
z  +0.0238798      Peri.  192.49751     -0.98831884     -0.08473377
 +/-0.0000696      Node    18.81500     -0.08225156     +0.99630525
e   0.9444165      Incl.  156.87314     -0.12829870     +0.01400107
a  41.88 AU         P     271.0 years
From 161 observations 2009 Jan. 29-Apr. 15, mean residual 0".70.
NAKANO
         **** Don't distribute anyone except personal use only ****
                (C) Copyright 2009 OAA/ComputingSection
write mail from CFAD0::NAKANO on 2009-04-17 06:28:28(JST).
 

◎C/2009 B2の軌道と予報位置

 3月に入ってからの観測が,芸西(関勉;1日,17.8等),上尾(門田健一;
1日,17.4等;14日,17.0等),守山(井狩康一;14日,17.0等;17日,16.6等;
20日,16.8等;24日,16.5等),北見(円館金;24日,16.8等N)と報告されて
います.彗星は,周期が270年ほどの長周期彗星でした.

    C/2009 B2 (LINEAR)
Epoch 2009 Feb. 18.0 TT = JDT 2454880.5  
T 2009 Mar. 7.40630 TT                                  Nakano
q   2.3276771            (2000.0)            P               Q
z  +0.0237689      Peri.  192.50152     -0.98832348     -0.08467774
 +/-0.0001689      Node    18.81573     -0.08219341     +0.99630974
e   0.9446736      Incl.  156.87382     -0.12830019     +0.01402104
a  42.07 AU         P     272.9 years
From 119 observations 2009 Jan. 29-Mar. 25, mean residual 0".68.
 
Date/        TT  R.A.(2000) Decl.     Delta   r     Daily motion  Mag.  Moon Age
              h    h  m       。  ,                      ,  / PA 。  m1      。
2009 Mar. 28 12  11 15.02  -09 59.5   1.374  2.339    78.3 / 286  16.9  142  .04
          29 12  11 09.92  -09 38.1   1.382  2.340    77.2 / 286  16.9  128  .10
          30 12  11 04.91  -09 16.6   1.390  2.341    76.0 / 286  16.9  113  .17
          31 12  10 59.99  -08 55.2   1.399  2.343    74.7 / 287  16.9   98  .27
     Apr.  1 12  10 55.16  -08 33.7   1.410  2.344    73.3 / 287  16.9   82  .37
           2 12  10 50.44  -08 12.3   1.421  2.345    71.8 / 287  17.0   67  .49
           3 12  10 45.82  -07 51.0   1.433  2.346    70.3 / 287  17.0   52  .60
           4 12  10 41.31  -07 29.9   1.445  2.348    68.7 / 288  17.0   38  .71
           5 12  10 36.92  -07 09.0   1.459  2.349    67.0 / 288  17.0   24  .81
           6 12  10 32.63  -06 48.3   1.473  2.351    65.4 / 288  17.1   13  .89
           7 12  10 28.47  -06 27.9   1.488  2.352    63.6 / 288  17.1   15  .95
           8 12  10 24.42  -06 07.9   1.503  2.354    61.9 / 289  17.1   26  .98
           9 12  10 20.48  -05 48.2   1.520  2.356    60.2 / 289  17.1   40 1.00
          10 12  10 16.66  -05 28.8   1.537  2.357    58.4 / 289  17.2   53  .99
          11 12  10 12.96  -05 09.8   1.554  2.359    56.7 / 289  17.2   66  .96
          12 12  10 09.38  -04 51.3   1.573  2.361    54.9 / 289  17.2   80  .91
          13 12  10 05.91  -04 33.1   1.591  2.363    53.2 / 289  17.2   93  .85
          14 12  10 02.55  -04 15.4   1.611  2.365    51.5 / 290  17.3  105  .77
          15 12  09 59.31  -03 58.1   1.630  2.367    49.8 / 290  17.3  118  .69
          16 12  09 56.18  -03 41.3   1.651  2.369    48.1 / 290  17.3  130  .60
          17 12  09 53.16  -03 24.9   1.671  2.371    46.5 / 290  17.4  142  .51
          18 12  09 50.24  -03 08.9   1.692  2.373    44.9 / 290  17.4  153  .41
          19 12  09 47.43  -02 53.5   1.714  2.375    43.3 / 290  17.4  163  .32
          20 12  09 44.72  -02 38.4   1.736  2.377    41.7 / 290  17.5  167  .23
          21 12  09 42.11  -02 23.9   1.758  2.379    40.2 / 291  17.5  159  .15
          22 12  09 39.59  -02 09.7   1.781  2.382    38.7 / 291  17.5  148  .09
          23 12  09 37.18  -01 56.1   1.804  2.384    37.3 / 291  17.6  135  .04
          24 12  09 34.85  -01 42.8   1.827  2.386    35.9 / 291  17.6  121  .01
          25 12  09 32.61  -01 30.0   1.850  2.389    34.5 / 291  17.6  107  .00
          26 12  09 30.47  -01 17.6   1.874  2.391    33.2 / 291  17.6   92  .03
          27 12  09 28.40  -01 05.7   1.898  2.394    31.9 / 291  17.7   78  .08
          28 12  09 26.42  -00 54.1   1.922  2.396    30.6 / 291  17.7   63  .15
          29 12  09 24.52  -00 42.9   1.946  2.399    29.4 / 291  17.7   49  .24
          30 12  09 22.69  -00 32.2   1.971  2.402    28.3 / 292  17.8   35  .35
     May   1 12  09 20.94  -00 21.8   1.995  2.404    27.1 / 292  17.8   22  .46
NAKANO
         **** Don't distribute anyone except personal use only ****
                (C) Copyright 2009 OAA/ComputingSection
write mail from CFAD0::NAKANO on 2009-03-28 05:00:13(JST).
 

    C/2009 B2 (LINEAR)
T 2009 Mar. 7.43215 TT                                  Nakano
q   2.3277766            (2000.0)            P               Q
z  +0.0234719      Peri.  192.51270     -0.98833671     -0.08451756
 +/-0.0002529      Node    18.81755     -0.08202807     +0.99632263
e   0.9453628      Incl.  156.87536     -0.12830414     +0.01407109
a  42.60 AU         P     278.1 years
From 82 observations 2009 Jan. 29-Mar. 18.
         **** Don't distribute anyone except personal use only ****
                (C) Copyright 2009 OAA/ComputingSection
write mail from CFAD0::NAKANO on 2009-03-19 05:48:55(JST).
 

◎C/2009 B2の軌道と予報位置

 2月1日と11日の追跡観測が上尾の門田健一氏,6日の追跡観測が守山の井狩康一氏
から報告されました.門田氏のCCD全光度は,それぞれ,18.3等と18.0等でした.

    C/2009 B2 (LINEAR)
T 2009 Mar. 9.88351 TT                                  Nakano
q   2.3332969            (2000.0)            P               Q
                   Peri.  193.57095     -0.98954330     -0.06852618
                   Node    18.94411     -0.06563041     +0.99748232
e   1.0            Incl.  156.98677     -0.12843953     +0.01825328
From 42 observations 2009 Jan. 29-Feb. 11.
NAKANO
         **** Don't distribute anyone except personal use only ****
                (C) Copyright 2009 OAA/ComputingSection
write mail from CFAD0::NAKANO on 2009-02-16 05:29:02(JST).

戻ります。